"Time","Temp","Dewpoint","Humidity","Pressure","Direction","Speed","Gust","Precip","PrecipRate"
"00:04:58","25.9","21.4","83","30.07","26","0.2","1.2","0.00","0.00"
"00:09:56","25.7","21.3","83","30.07","26","0.3","1.2","0.00","0.00"
"00:14:59","25.5","21.3","84","30.08","26","0.2","2.4","0.00","0.00"
"00:19:56","25.4","21.2","84","30.08","9","0.6","2.4","0.00","0.00"
"00:24:57","25.3","21.1","84","30.08","5","0","1.2","0.00","0.00"
"00:29:58","25.3","21.1","84","30.08","5","0.3","2.4","0.00","0.00"
"00:34:59","25.2","21","84.1","30.08","5","0.1","1.2","0.00","0.00"
"00:39:56","25.1","21.2","85","30.08","5","1.1","2.4","0.00","0.00"
"00:44:57","25.2","21.1","84.3","30.08","5","0","0","0.00","0.00"
"00:49:59","25.3","21.2","84.2","30.08","5","1.4","2.4","0.00","0.00"
"00:54:56","25.3","21.1","84","30.08","5","1","2.4","0.00","0.00"
"00:59:56","25.2","21","84","30.08","5","0.1","1.2","0.00","0.00"
"01:04:56","25.3","21.1","84.2","30.07","355","1.4","4.8","0.00","0.00"
"01:09:59","25.7","21.5","83.8","30.07","355","1.3","4.8","0.00","0.00"
"01:14:56","26","21.5","83","30.07","355","0.9","4.8","0.00","0.00"
"01:19:58","25.9","21.4","83","30.07","355","1.1","2.4","0.00","0.00"
"01:24:58","25.8","21.3","83","30.07","355","0.1","1.2","0.00","0.00"
"01:29:59","25.6","21.2","83","30.07","355","0","0","0.00","0.00"
"01:34:56","25.5","21.1","83","30.07","355","0","0","0.00","0.00"
"01:39:57","25.2","20.8","83.1","30.07","355","0","0","0.00","0.00"
"01:44:58","24.9","20.8","84","30.07","355","0","0","0.00","0.00"
"01:49:59","24.7","20.8","84.9","30.07","355","0","0","0.00","0.00"
"01:54:56","24.7","20.8","84.8","30.07","355","0","0","0.00","0.00"
"01:59:57","24.6","20.7","85","30.09","355","0","0","0.00","0.00"
"02:04:57","24.5","20.6","85","30.09","355","0","0","0.00","0.00"
"02:09:56","24.6","20.8","85.3","30.09","355","1.5","3.6","0.00","0.00"
"02:14:57","24.9","21","85.1","30.09","355","0.6","3.6","0.00","0.00"
"02:19:58","25","21.1","85","30.09","355","0","1.2","0.00","0.00"
"02:24:59","24.9","20.9","84.5","30.09","355","0.3","1.2","0.00","0.00"
"02:29:59","24.8","20.5","83.3","30.10","355","0.1","1.2","0.00","0.00"
"02:34:57","24.4","20.4","84.3","30.10","355","0","0","0.00","0.00"
"02:39:58","24.2","20.3","85.1","30.10","355","0","0","0.00","0.00"
"02:44:59","24","20.4","86","30.10","355","0","0","0.00","0.00"
"02:49:56","24","20.4","86","30.10","355","0.3","2.4","0.00","0.00"
"02:54:56","24.2","20.6","86","30.10","355","0.2","2.3","0.00","0.00"
"02:59:57","24.2","20.6","86","30.11","355","0","1.2","0.00","0.00"
"03:04:59","24.1","20.3","85.3","30.11","355","0","0","0.00","0.00"
"03:09:58","24","20.4","86","30.11","350","0.2","2.4","0.00","0.00"
"03:14:59","24.2","20.5","85.9","30.11","350","0.2","1.2","0.00","0.00"
"03:19:56","24.1","20.3","85.3","30.11","350","0.2","1.2","0.00","0.00"
"03:24:58","24","20.2","85.3","30.11","350","0","0","0.00","0.00"
"03:29:59","23.8","20.2","85.9","30.11","350","0","1.2","0.00","0.00"
"03:34:56","23.7","20.1","86","30.11","350","0.4","2.4","0.00","0.00"
"03:39:57","23.6","20","86","30.11","350","0.5","3.6","0.00","0.00"
"03:44:58","23.6","20","86","30.11","350","0.1","1.2","0.00","0.00"
"03:49:59","23.4","19.8","86","30.11","350","0","0","0.00","0.00"
"03:54:55","23.3","19.7","86.2","30.11","350","0","0","0.00","0.00"
"03:59:59","23.3","20","87","30.11","350","0","0","0.00","0.00"
"04:04:56","23.3","20","87","30.11","350","0","0","0.00","0.00"
"04:09:59","23.3","20","87","30.11","350","0","0","0.00","0.00"
"04:14:59","23.3","20.2","87.5","30.11","350","0","0","0.00","0.00"
"04:19:56","23.6","20.3","87","30.11","350","0","0","0.00","0.00"
"04:24:57","23.9","20.6","87","30.11","350","0","0","0.00","0.00"
"04:29:58","24","20.7","87","30.11","350","0","0","0.00","0.00"
"04:34:59","24","20.7","87","30.11","350","0","0","0.00","0.00"
"04:39:56","24","20.7","87","30.11","350","0","0","0.00","0.00"
"04:44:56","23.9","20.6","87","30.11","350","0","0","0.00","0.00"
"04:49:58","24","20.7","87","30.10","350","0","0","0.00","0.00"
"04:54:59","24.2","21.2","88","30.10","350","0","0","0.00","0.00"
"04:59:59","24.4","21.2","87.6","30.11","350","0","0","0.00","0.00"
"05:04:56","24.4","21.1","87","30.11","350","0","0","0.00","0.00"
"05:09:59","24.4","21.1","87","30.11","350","0","0","0.00","0.00"
"05:14:56","24.4","21.3","87.7","30.11","350","0","0","0.00","0.00"
"05:19:58","24.6","21.3","87.2","30.11","350","0","0","0.00","0.00"
"05:24:59","24.7","21.4","87","30.11","350","0","0","0.00","0.00"
"05:29:56","24.7","21.4","87","30.11","350","0","0","0.00","0.00"
"05:34:57","24.7","21.4","87","30.11","350","0","0","0.00","0.00"
"05:39:59","24.8","21.5","87","30.11","350","0","0","0.00","0.00"
"05:44:59","24.9","21.6","87","30.11","350","0","0","0.00","0.00"
"05:49:58","24.8","21.4","86.6","30.11","350","0","0","0.00","0.00"
"05:54:58","24.7","21.4","87","30.11","350","0","0","0.00","0.00"
"05:59:58","24.6","21.1","86.5","30.11","350","0","0","0.00","0.00"
"06:04:59","24.7","21.1","86","30.11","350","0","0","0.00","0.00"
"06:09:59","24.8","21.2","86","30.11","350","0","0","0.00","0.00"
"06:14:59","25","21.4","86","30.12","350","0","0","0.00","0.00"
"06:19:56","25","21.4","85.8","30.12","350","0","0","0.00","0.00"
"06:24:56","25.1","21.3","85.2","30.12","350","0","0","0.00","0.00"
"06:29:56","25.1","21.2","85","30.12","350","0.3","2.4","0.00","0.00"
"06:34:56","25.4","21.5","84.9","30.12","350","2","3.6","0.00","0.00"
"06:39:56","25.7","21.5","84","30.12","350","1.9","3.6","0.00","0.00"
"06:44:56","25.9","21.5","83.4","30.12","350","1.4","3.6","0.00","0.00"
"06:49:56","26","21.5","83","30.12","350","0","1.2","0.00","0.00"
"06:54:56","26","21.5","83","30.12","350","1.3","2.4","0.00","0.00"
"06:59:59","26.3","21.7","82.8","30.12","350","1.4","2.4","0.00","0.00"
"07:04:56","26.7","21.9","82","30.12","350","1.1","2.4","0.00","0.00"
"07:09:59","27","22.1","81.7","30.12","350","0.1","1.2","0.00","0.00"
"07:14:59","27.1","22","81","30.13","350","0","0","0.00","0.00"
"07:19:59","27.2","22.1","81","30.13","350","0","0","0.00","0.00"
"07:24:59","27.1","22.2","81.6","30.13","350","0","0","0.00","0.00"
"07:29:56","27","22.2","82","30.13","350","0","0","0.00","0.00"
"07:34:58","26.9","22.1","82","30.12","350","0","0","0.00","0.00"
"07:39:59","26.9","22.1","82","30.12","350","0","0","0.00","0.00"
"07:44:56","26.9","22.1","82","30.13","350","0","0","0.00","0.00"
"07:49:56","26.8","22","82","30.13","350","0","0","0.00","0.00"
"07:54:57","26.8","22.1","82.4","30.13","350","0","0","0.00","0.00"
"07:59:58","26.9","22.4","83","30.13","350","0","0","0.00","0.00"
"08:04:59","27","22.7","83.9","30.12","350","0","0","0.00","0.00"
"08:09:58","27.1","22.9","84","30.12","349","0.4","2.4","0.00","0.00"
"08:14:58","27.2","23.1","84.3","30.13","349","0.8","2.4","0.00","0.00"
"08:19:59","27.3","23.1","84","30.13","350","0","0","0.00","0.00"
"08:24:58","27.5","23","83.2","30.13","350","0","0","0.00","0.00"
"08:29:58","27.7","23.2","83","30.13","349","0","1.2","0.00","0.00"
"08:34:57","28.1","23.8","83.7","30.13","349","0.6","2.4","0.00","0.00"
"08:39:59","28.5","24.2","83.8","30.13","350","1","2.4","0.00","0.00"
"08:44:57","28.8","24.7","84.2","30.13","350","0.1","1.2","0.00","0.00"
"08:49:59","29.1","25.1","84.7","30.12","350","0","0","0.00","0.00"
"08:54:59","29.3","25.3","84.9","30.12","328","1","2.4","0.00","0.00"
"08:59:59","29.6","25.7","85.3","30.13","319","1.6","2.4","0.00","0.00"
"09:04:59","29.9","25.9","84.8","30.13","319","0.5","2.4","0.00","0.00"
"09:09:58","30.3","26","84","30.13","319","0","0","0.00","0.00"
"09:14:58","30.6","26.2","83.5","30.13","319","0","0","0.00","0.00"
"09:19:58","30.9","26.1","82.2","30.13","319","0","0","0.00","0.00"
"09:24:58","31.3","26.1","81","30.13","319","0","0","0.00","0.00"
"09:29:57","31.7","26.7","81.8","30.13","319","0","0","0.00","0.00"
"09:34:59","32.1","26.5","79.7","30.13","319","0","0","0.00","0.00"
"09:39:58","32.6","27.1","80.1","30.13","319","1","2.4","0.00","0.00"
"09:44:58","33.2","27.4","79.2","30.14","319","1.2","2.4","0.00","0.00"
"09:49:58","33.8","27.4","77.2","30.14","294","1.1","3.6","0.00","0.00"
"09:54:57","34.4","27.7","76.4","30.14","271","1.5","3.6","0.00","0.00"
"09:59:57","35","27.9","75","30.14","271","0.3","2.3","0.00","0.00"
"10:04:57","35.6","28.6","75.3","30.14","271","0.1","1.2","0.00","0.00"
"10:09:56","36.4","28.6","73.1","30.14","266","0.7","3.6","0.00","0.00"
"10:14:56","37","29.3","73.3","30.14","265","0.7","2.4","0.00","0.00"
"10:19:57","37.7","29.4","71.9","30.14","265","0.8","2.4","0.00","0.00"
"10:24:57","38.9","29.3","68","30.14","264","1.3","3.6","0.00","0.00"
"10:29:56","39.8","29.9","67.3","30.14","248","1.9","3.6","0.00","0.00"
"10:34:56","40.5","29.7","65.2","30.14","244","2.1","4.8","0.00","0.00"
"10:39:56","40.7","28.8","62.3","30.14","248","2.4","4.8","0.00","0.00"
"10:44:59","40.5","27.9","60.4","30.14","294","1.9","4.8","0.00","0.00"
"10:49:56","40.5","27.7","59.9","30.14","286","1","3.6","0.00","0.00"
"10:54:56","40.6","27.5","59.2","30.14","286","0.9","3.5","0.00","0.00"
"10:59:59","40.7","27.7","59.3","30.14","286","0.4","2.4","0.00","0.00"
"11:04:59","41.2","28.6","60.4","30.14","286","0.9","3.6","0.00","0.00"
"11:09:59","41.6","28.3","59","30.14","260","2.7","7.2","0.00","0.00"
"11:14:59","41.4","28.3","59.4","30.14","188","2.4","6.9","0.00","0.00"
"11:19:59","41.2","28","59.3","30.14","204","3.1","6","0.00","0.00"
"11:24:59","41.1","28.2","59.8","30.14","194","2.5","3.6","0.00","0.00"
"11:29:59","41.3","28.1","59.2","30.14","194","1.9","4.8","0.00","0.00"
"11:34:58","41.6","28.4","59.2","30.14","195","1.9","4.6","0.00","0.00"
"11:39:58","41.8","28.4","58.7","30.14","195","1.8","3.6","0.00","0.00"
"11:44:58","41.9","27.9","57.4","30.14","208","2.7","4.8","0.00","0.00"
"11:49:57","41.8","26.6","54.5","30.13","262","2.5","7.2","0.00","0.00"
"11:54:57","42","27.6","56.4","30.13","287","0.6","2.4","0.00","0.00"
"11:59:56","42.1","26.9","54.7","30.13","223","1.2","4.8","0.00","0.00"
"12:04:56","41.8","26","53.2","30.11","221","0.8","3.6","0.00","0.00"
"12:09:59","41.9","26.3","53.7","30.11","282","2","3.6","0.00","0.00"
"12:14:58","42","26.3","53.4","30.11","305","0.5","2.4","0.00","0.00"
"12:19:58","42.3","26.8","53.9","30.09","305","0.9","2.4","0.00","0.00"
"12:24:57","42.3","26.5","53.2","30.09","305","0.2","1.2","0.00","0.00"
"12:29:57","42.4","26.4","52.7","30.09","299","0.6","3.6","0.00","0.00"
"12:34:58","42.5","26.6","53.1","30.09","289","0.9","3.5","0.00","0.00"
"12:39:57","42.5","26","51.8","30.09","286","0.3","2.4","0.00","0.00"
"12:44:57","42.7","26.6","52.6","30.09","286","0.2","2.4","0.00","0.00"
"12:49:57","43","27.2","53.3","30.08","277","1","2.4","0.00","0.00"
"12:54:56","43.2","27.7","54","30.08","158","1.9","4.8","0.00","0.00"
"12:59:56","43.1","27.7","54.3","30.08","149","2.3","4.8","0.00","0.00"
"13:04:57","43.2","27.6","54","30.08","150","1.2","3.5","0.00","0.00"
"13:09:59","43.2","27.7","54.1","30.08","150","1.6","3.6","0.00","0.00"
"13:14:59","43","27.3","53.5","30.08","126","3.3","4.8","0.00","0.00"
"13:19:56","43.2","28","54.7","30.06","109","2","4.6","0.00","0.00"
"13:24:59","43.6","28.4","54.7","30.06","109","1","2.4","0.00","0.00"
"13:29:59","43.4","27.1","52.4","30.06","109","1.7","3.6","0.00","0.00"
"13:34:56","43.2","27.1","52.8","30.06","110","1.3","3.6","0.00","0.00"
"13:39:59","43.3","27.6","53.7","30.06","110","1.4","2.4","0.00","0.00"
"13:44:56","43.5","27.5","52.9","30.06","168","2.3","4.8","0.00","0.00"
"13:49:56","43.7","27","51.6","30.06","170","1.1","3.6","0.00","0.00"
"13:54:56","44","27","50.9","30.06","171","2.5","4.8","0.00","0.00"
"13:59:59","44","27.3","51.5","30.06","172","1.2","3.6","0.00","0.00"
"14:04:59","44.2","26.9","50.5","30.06","172","1.3","3.6","0.00","0.00"
"14:09:57","44.3","27.2","50.8","30.06","172","1.4","4.8","0.00","0.00"
"14:14:57","44.4","26.6","49.4","30.06","174","2.3","4.8","0.00","0.00"
"14:19:57","44.5","26.1","48.3","30.06","195","3.1","7.2","0.00","0.00"
"14:24:57","44.5","26.2","48.3","30.06","196","2.3","4.8","0.00","0.00"
"14:29:56","45","26.1","47.3","30.06","189","2.1","4.8","0.00","0.00"
"14:34:57","45.6","26.5","47","30.05","208","3.2","6","0.00","0.00"
"14:39:57","46.2","26.8","46.5","30.05","211","1.1","3.6","0.00","0.00"
"14:44:57","46.7","27.3","46.7","30.05","174","1.7","3.6","0.00","0.00"
"14:49:58","46.5","27","46.4","30.05","124","2.7","4.8","0.00","0.00"
"14:54:58","46.7","27","45.9","30.05","169","2.4","7.2","0.00","0.00"
"14:59:57","45.8","25.3","44.5","30.05","202","2.6","5.8","0.00","0.00"
"15:04:57","46","25.9","45.1","30.05","167","2.3","4.8","0.00","0.00"
"15:09:56","46.9","26.2","44.2","30.05","203","4.2","7.2","0.00","0.00"
"15:14:59","46.9","26","44","30.06","191","4","7.2","0.00","0.00"
"15:19:59","46.8","25.7","43.4","30.06","186","3.2","7.2","0.00","0.00"
"15:24:58","46.9","25.9","43.7","30.06","193","3.5","8.4","0.00","0.00"
"15:29:58","46.7","25.3","42.8","30.06","201","3.9","8.1","0.00","0.00"
"15:34:58","46.2","25.3","43.7","30.06","195","2.5","5.8","0.00","0.00"
"15:39:58","46.1","25.2","43.6","30.06","218","2.5","6","0.00","0.00"
"15:44:58","45.8","24.8","43.4","30.06","195","3","6","0.00","0.00"
"15:49:59","45.5","24.6","43.6","30.06","199","2.9","4.8","0.00","0.00"
"15:54:59","45.3","24.6","43.9","30.06","202","3","4.8","0.00","0.00"
"15:59:58","45","24.8","44.8","30.06","203","2.7","4.8","0.00","0.00"
"16:04:58","44.9","24.6","44.7","30.06","198","2","3.6","0.00","0.00"
"16:09:57","45","25","45.2","30.06","198","1.7","3.6","0.00","0.00"
"16:14:57","45.5","25.4","45","30.06","198","1.9","3.6","0.00","0.00"
"16:19:57","46","25.6","44.7","30.06","198","0.9","3.6","0.00","0.00"
"16:24:57","45.8","25.2","44.3","30.06","197","0.7","3.6","0.00","0.00"
"16:29:56","45.2","25","44.7","30.06","197","2","3.6","0.00","0.00"
"16:34:56","44.8","25","45.5","30.06","197","1.7","3.6","0.00","0.00"
"16:39:56","44.4","25","46.2","30.06","197","0.7","3.6","0.00","0.00"
"16:44:56","44.1","24.7","46.1","30.06","197","1","3.6","0.00","0.00"
"16:49:56","43.9","24.8","46.8","30.06","197","0.8","2.4","0.00","0.00"
"16:54:57","43.5","24.6","47","30.06","197","0.2","1.2","0.00","0.00"
"16:59:57","43.2","24.3","47.1","30.07","197","0","0","0.00","0.00"
"17:04:57","43","24.8","48.5","30.07","197","0.1","2.4","0.00","0.00"
"17:09:56","42.7","24.9","49.2","30.07","197","0.5","2.4","0.00","0.00"
"17:14:56","42.4","25.1","50","30.07","197","0.6","2.4","0.00","0.00"
"17:19:57","42","24.8","50.3","30.07","197","0.1","1.2","0.00","0.00"
"17:24:58","41.6","25.1","51.5","30.07","197","0","1.2","0.00","0.00"
"17:29:58","41.2","25.7","53.7","30.08","197","0.2","1.2","0.00","0.00"
"17:34:59","40.8","25.5","54.3","30.08","197","0","1.2","0.00","0.00"
"17:39:56","40.4","25","53.7","30.08","197","0","0","0.00","0.00"
"17:44:56","40.2","25.6","55.5","30.08","197","0","0","0.00","0.00"
"17:49:57","40","26.1","57.4","30.08","197","0","0","0.00","0.00"
"17:54:57","39.6","26.2","58.3","30.08","197","0","0","0.00","0.00"
"17:59:57","39.3","25.7","58","30.08","197","0","0","0.00","0.00"
"18:04:58","39","26.3","59.9","30.08","197","0","0","0.00","0.00"
"18:09:57","38.6","25.6","59.3","30.08","197","0.1","1.2","0.00","0.00"
"18:14:57","38.2","25.9","61","30.08","197","0.2","1.2","0.00","0.00"
"18:19:58","38","25.7","61","30.08","197","0","0","0.00","0.00"
"18:24:59","37.7","25.8","62","30.08","197","0","0","0.00","0.00"
"18:29:59","37.3","25.7","62.5","30.09","197","0","0","0.00","0.00"
"18:34:59","37","25.8","63.5","30.09","197","0.5","2.4","0.00","0.00"
"18:39:59","36.8","25.6","63.8","30.09","197","0","0","0.00","0.00"
"18:44:59","36.5","25.6","64.2","30.09","197","0","0","0.00","0.00"
"18:49:56","36.2","25.7","65.2","30.09","197","0","0","0.00","0.00"
"18:54:56","35.9","25.8","66.3","30.09","197","0","0","0.00","0.00"
"18:59:56","35.7","25.6","66.3","30.09","197","0","0","0.00","0.00"
"19:04:56","35.5","25.5","66.6","30.09","197","0","0","0.00","0.00"
"19:09:59","35.4","25.5","67","30.09","197","0","0","0.00","0.00"
"19:14:57","35.3","25.8","68","30.09","197","0","0","0.00","0.00"
"19:19:58","35.1","25.7","68.5","30.09","197","0","0","0.00","0.00"
"19:24:58","34.9","25.8","69","30.09","197","0","0","0.00","0.00"
"19:29:58","34.8","26.2","70.4","30.09","197","0","0","0.00","0.00"
"19:34:59","34.8","26","70.1","30.09","197","0","0","0.00","0.00"
"19:39:59","34.7","25.9","70","30.09","197","0","0","0.00","0.00"
"19:44:59","34.7","26.2","70.8","30.09","197","0","0","0.00","0.00"
"19:49:59","34.7","26.3","71.2","30.09","197","0","0","0.00","0.00"
"19:54:59","34.6","26.5","72","30.09","197","0","0","0.00","0.00"
"19:59:58","34.5","26.4","72","30.10","197","0","0","0.00","0.00"
"20:04:58","34.5","26.6","72.7","30.10","197","0","0","0.00","0.00"
"20:09:57","34.4","26.4","72.3","30.10","197","0","0","0.00","0.00"
"20:14:57","34.4","26.6","73","30.10","197","0.4","2.4","0.00","0.00"
"20:19:57","34.4","26.7","73.3","30.10","197","0.2","2.3","0.00","0.00"
"20:24:56","34.3","26.9","74","30.10","197","0","0","0.00","0.00"
"20:29:56","34.2","26.8","74","30.10","197","0.5","2.4","0.00","0.00"
"20:34:56","34.1","26.3","73","30.10","197","0","0","0.00","0.00"
"20:39:56","34","26.4","73.5","30.10","197","0","2.4","0.00","0.00"
"20:44:56","33.9","26.7","74.6","30.10","197","0.1","2.3","0.00","0.00"
"20:49:57","33.8","26.6","74.6","30.10","197","0","0","0.00","0.00"
"20:54:58","33.7","26.6","75.1","30.10","197","0","0","0.00","0.00"
"20:59:56","33.5","26.5","75.3","30.10","197","0","0","0.00","0.00"
"21:04:57","33.4","26.3","75","30.10","197","0","0","0.00","0.00"
"21:09:56","33.2","26.4","75.7","30.10","197","0","0","0.00","0.00"
"21:14:57","33","26.3","76","30.10","197","0","0","0.00","0.00"
"21:19:58","32.8","26.1","76","30.10","197","0","0","0.00","0.00"
"21:24:58","32.6","26.1","76.6","30.10","197","0","0","0.00","0.00"
"21:29:57","32.4","26","76.9","30.11","197","0","0","0.00","0.00"
"21:34:58","32.2","25.8","77","30.11","197","0","0","0.00","0.00"
"21:39:58","32","25.8","77.5","30.11","197","0","0","0.00","0.00"
"21:44:58","31.8","25.7","77.9","30.11","197","0","0","0.00","0.00"
"21:49:59","31.6","25.5","78","30.11","197","0","0","0.00","0.00"
"21:54:59","31.4","25.4","78.2","30.11","197","0","0","0.00","0.00"
"21:59:59","31.3","25.5","79","30.11","197","0","0","0.00","0.00"
"22:04:59","31.1","25.3","79","30.11","197","0","0","0.00","0.00"
"22:09:58","30.7","25.2","79.5","30.11","197","0","0","0.00","0.00"
"22:14:58","30.4","25.1","80.6","30.11","197","0","0","0.00","0.00"
"22:19:59","30.1","24.9","80.5","30.11","197","0","0","0.00","0.00"
"22:24:59","29.9","24.5","80","30.11","197","0","0","0.00","0.00"
"22:29:59","29.8","24.6","80.8","30.12","197","0","0","0.00","0.00"
"22:34:56","29.6","24.6","81.3","30.12","197","0","0","0.00","0.00"
"22:39:57","29.6","24.8","82","30.12","197","0","0","0.00","0.00"
"22:44:57","29.6","24.5","81.1","30.12","197","0","0","0.00","0.00"
"22:49:57","29.4","24.3","81","30.12","197","0","0","0.00","0.00"
"22:54:57","29.1","24","81","30.12","197","0","0","0.00","0.00"
"22:59:57","28.9","24.1","82","30.13","197","0","0","0.00","0.00"
"23:04:57","28.6","23.8","82","30.13","197","0","0","0.00","0.00"
"23:09:56","28.5","23.8","82.3","30.13","197","0","0","0.00","0.00"
"23:14:56","28.4","23.8","82.7","30.13","197","0","0","0.00","0.00"
"23:19:57","28.2","23.7","83","30.13","197","0","0","0.00","0.00"
"23:24:56","28","23.7","83.7","30.13","197","0","0","0.00","0.00"
"23:29:56","27.8","23.6","84.1","30.13","197","0","0","0.00","0.00"
"23:34:56","27.6","23.7","85","30.13","197","0","0","0.00","0.00"
"23:39:56","27.5","23.6","85","30.13","197","0","0","0.00","0.00"
"23:44:59","27.5","23.7","85.2","30.13","197","0","0","0.00","0.00"
"23:49:59","27.6","23.6","84.8","30.13","197","0","0","0.00","0.00"
"23:54:54","27.5","23.5","84.8","30.13","197","0","0","0.00","0.00"
